Regional Weather Roundup
Issued by NWS

Home | Current Version | Previous Version | Text Only | Print | Product List | Glossary On
Versions: 1 2 3 4 5 6 7 8 9 10 11 12 13 14 15 16 17 18 19 20 21 22 23 24 25 26 27 28 29 30 31 32 33 34 35 36 37 38 39 40 41 42 43 44 45 46 47 48 49 50
595
ASUS45 KBOU 010307
RWRCO

WEATHER ROUNDUP FOR COLORADO
NATIONAL WEATHER SERVICE DENVER/BOULDER CO
800 PM MST TUE FEB 28 2017

NOTE: "FAIR" INDICATES FEW OR NO CLOUDS BELOW 12000 FEET WITH NO
SIGNIFICANT WEATHER AND/OR OBSTRUCTIONS TO VISIBILITY.

COZ001>005-013-030-031-010400-
...NORTHWEST COLORADO...

CITY           SKY/WX    TMP DP  RH WIND       PRES   REMARKS
CRAIG          FAIR      11   6  81 CALM      30.02R
HAYDEN         FAIR      16   7  67 CALM      30.00R
MEEKER         LGT SNOW  21  16  81 CALM      30.04R
MOUNT WERNER   NOT AVBL
STEAMBOAT SPGS CLOUDY    14   8  76 CALM      29.98R
WALDEN         NOT AVBL
$$

COZ006>008-011-010400-
...WEST CENTRAL VALLEYS...

CITY           SKY/WX    TMP DP  RH WIND       PRES   REMARKS
GRAND JUNCTION FAIR      30  14  51 W8        30.07R WCI  22
MONTROSE       FAIR      28  19  69 W6        30.08R WCI  22
EAGLE          CLEAR     19   9  63 S7        30.02R WCI  10
RIFLE          FAIR      28  16  60 W10       30.05R WCI  19
DELTA          FAIR      33  17  51 CALM      30.07R
NUCLA          FAIR      32  10  40 NW7       30.10R WCI  26
$$

COZ017>023-064>068-010400-
...SOUTHWEST COLORADO...

CITY           SKY/WX    TMP DP  RH WIND       PRES   REMARKS
DURANGO        FAIR      29  19  66 W18       29.97R WCI  16
CORTEZ         CLOUDY    29  26  89 N3        30.04R
PAGOSA SPRINGS FAIR      26  20  77 SW12      29.95R WCI  16
TELLURIDE      CLOUDY    19   7  59 NW6       30.01R WCI  11
WOLF CREEK PAS CLOUDY    10   9  92 S22G31    29.90R WCI  -9
$$

COZ009-010-012-014-032>034-037-058>063-010400-
...CENTRAL COLORADO...

CITY           SKY/WX    TMP DP  RH WIND       PRES   REMARKS
ASPEN          MOCLDY    13  11  92 CALM      29.96R
BUENA VISTA    CLOUDY    22   8  55 N13G20    29.90R WCI   9
COPPER MTN     CLOUDY     5  -4  66 MISG      29.79R
BERTHOUD PASS  SNOW      -6 -15  65 NW36      29.69R VSB 1/2 WCI -36
COTTONWOOD PAS CLOUDY    18   5  57 NW6       29.85R WCI   9
GUNNISON       FAIR      22   8  55 NW16G25   29.96R WCI   8
KREMMLING      FAIR      18   5  57 CALM      29.98R
LEADVILLE      CLOUDY     8   0  69 NW15      29.87R WCI  -9
MONARCH PASS   FAIR       5   0  78 MISG      29.87R
SALIDA         MOCLDY    28   1  31 W13       29.98R WCI  17
SUNLIGHT       NOT AVBL
WILKERSON PASS CLOUDY     7  -2  66 W10G20    29.82R WCI  -8
$$

COZ069>075-010400-
...SAN LUIS VALLEY/SANGRE DE CRISTO MOUNTAINS...

CITY           SKY/WX    TMP DP  RH WIND       PRES   REMARKS
ALAMOSA        MOCLDY    28  22  78 N6        29.91R WCI  22
LA VETA PASS   LGT SNOW  19  16  86 SW8G39    29.84R WCI   9
SAGUACHE       CLOUDY    25   9  50 NW18G26   29.93R WCI  11
$$

COZ035-036-038>040-010400-
...NORTHERN COLORADO FRONT RANGE...

CITY           SKY/WX    TMP DP  RH WIND       PRES   REMARKS
DENVER INTL AP FAIR      23  20  88 SW6       29.92R WCI  16
DMNS CITY PARK   N/A     29  -1  27 W30       29.93R WCI  14
AURORA         PTCLDY    25  17  69 W16G25    29.92R WCI  13
FRONT RANGE AP PTCLDY    21  21 100 SW6       29.92R WCI  14
ERIE MUNI ARPT FAIR      28   6  40 W9        29.94R WCI  19
BOULDER MUN AP FAIR      32   1  27 W15       29.93R WCI  22
CENTENNIAL     MOCLDY    27   1  32 NW25G33   29.91R WCI  12
BROOMFIELD     PTCLDY    27   3  36 W17G29    29.93R WCI  14
FORT COLLINS   FAIR      26   8  46 NW7       29.93R WCI  18
LONGMONT       NOT AVBL
$$

COZ041-046-047-076>085-087-088-010400-
...PIKES PEAK/PALMER DIVIDE AND SOUTHERN FOOTHILLS...

CITY           SKY/WX    TMP DP  RH WIND       PRES   REMARKS
COLO. SPRINGS  FLURRIES  28  18  66 N16       29.90R WCI  16
A. F. ACADEMY  MIX PCPN  26  19  75 N14G26    29.88R WCI  14
SCHRIEVER AFB  FLURRIES  26  19  73 N21G28    29.89  WCI  12
ELLICOTT       LGT SNOW N/A N/A N/A NE12      29.89R
FALCON         CLOUDY    24  17  74 N12G20    29.88R WCI  13
FORT CARSON    MOCLDY    29  21  72 N12       29.89R WCI  19
LIMON          LGT SNOW  24  24 100 N6        29.90S FOG     WCI  17
MONUMENT HILL  FAIR      18  16  93 CALM      29.90R
TRINIDAD       MOCLDY    35  23  61 NW22G31   29.86R WCI  23
$$

COZ042>045-048>051-090-091-010400-
...NORTHEAST COLORADO...

CITY           SKY/WX    TMP DP  RH WIND       PRES   REMARKS
GREELEY ARPT   FAIR      25  13  60 W12       29.94R WCI  14
AKRON          MOCLDY    25  21  85 W14       29.89R WCI  13
BURLINGTON     CLOUDY    29  25  85 NW9       29.90R WCI  20
WRAY           MOCLDY    28  27  93 W7        29.90R WCI  21
STERLING       FAIR      30  12  47 NW17      29.87R WCI  18
HOLYOKE        FAIR      32  18  55 NW9       29.87R WCI  24
FORT MORGAN    FAIR      23  16  73 NW10      29.92R WCI  12
$$

COZ086-089-092>099-010400-
...SOUTHEAST COLORADO...

CITY           SKY/WX    TMP DP  RH WIND       PRES   REMARKS
PUEBLO         FAIR      33  19  56 NE16      29.89R WCI  23
LA JUNTA       CLOUDY    34  25  69 NE15      29.89R WCI  24
LAMAR          CLOUDY    34  21  59 N13       29.88R WCI  25
SPRINGFIELD      N/A     30  10  43 NE12      29.85R WCI  20
$$




USA.gov is the U.S. government's official web portal to all federal, state and local government web resources and services.